Find Starlink 31481

NORAD ID: 59541 Int'l Des: 2024-074 Owner: SPXS Country: US Constellation: starlink operational
LEOCIRCULAR

当前视图

正在加载3D地球...

About Starlink 31481

Starlink 31481 (NORAD 59541) is a starlink constellation satellite (v2 mini) launched Apr 18, 2024 by SPXS of US. It operates in LEO, CIRCULAR orbit with a mass of 730.00 kg.

即将过境

Passes for default location (London). Set your location on the main map for personalized predictions.

高度历史

Loading altitude history...

两行轨道根数

1 59541U 24074H 26263.63369791 -.00005123 00000-0 -17666-3 0 9996
2 59541 43.0029 322.1406 0001361 241.7251 118.3464 15.27602526135838
Epoch: Sep 20, 2026 • Age: 14 hours

当前状态

高度 495.4 km
远地点 / 近地点 N/A
速度 7.62 km/s
星下点 -42.93°S, 161.58°E
发射日期 Apr 18, 2024
运行时间 2.4 years
类型 internet

技术详情

分类 Payload
质量 730.00 kg
干质量 700.00 kg
长度 0.30 m
跨度 29.00 m
形状 ? Box + pan
制造商 SPXS
平台类型 Starlink V2M
阶段状态 In Orbit
所有者/国家 SPXS/US

Most Searched